Location: Moscow
(38.3171°N, 79.0889°W)
Time: 22:01:51
(UTC+00:00)

Cosmos 1908 Rocket - Pass Details

Date: 07 November 2025
Orbit: 599 x 625 km, 82.5° (Epoch: 14 December)

Event Time Altitude Azimuth Distance (km) Brightness Sun altitude
Rises 22:54:06 0° 180° (S) 2,866 7.2 -9.0°
Reaches altitude 10° 22:56:18 10° 178° (S) 1,970 6.3 -9.5°
Maximum altitude 23:00:39 71° 95° (E) 659 3.5 -10.3°
Drops below altitude 10° 23:05:03 10° 12° (NNE) 1,999 5.9 -11.1°
Sets 23:07:18 0° 10° (N) 2,912 6.8 -11.6°
